Location: Collado de Erillavall
(42.5271°N, 0.8012°E)
Time: 04:20:57
(UTC+00:00)

Daily predictions for brighter satellites

Satellite Brightness Start Highest point End
(mag) Time Altitude Azimuth Time Altitude Azimuth Time Altitude Azimuth
CZ-4C R/B 4.3 03:21:54 20° NNE 03:21:54 20° NNE 03:23:57 10° NNE
NOSS 3-1 (A) 4.3 03:19:35 64° E 03:19:35 64° E 03:27:28 10° SE
USA 267 4.2 03:23:08 10° SE 03:26:50 38° SE 03:26:50 38° SE
Cosmos 1943 Rocket 3.7 03:37:57 27° NNE 03:39:34 32° NE 03:44:26 10° ESE
Lacrosse 5 3.4 03:45:19 33° ENE 03:45:19 33° ENE 03:48:42 10° ESE
ATLAS CENTAUR R/B 4.1 03:52:19 15° NNE 03:52:19 15° NNE 03:53:08 10° NNE
SL-16 R/B 3.2 04:01:36 37° N 04:01:36 37° N 04:05:02 10° NNE
MSX 4.5 03:56:20 10° NNE 04:00:17 46° N 04:00:17 46° N
CZ-2C R/B 3.1 03:57:07 10° NNE 04:01:40 54° ENE 04:01:40 54° ENE
BREEZE-M DEB (TANK) 3.8 04:09:15 44° N 04:09:36 45° NNE 04:19:30 10° E
Cosmos 2369 Rocket 3.2 04:06:41 12° NNW 04:11:47 45° ENE 04:17:13 10° SE
H-2A R/B 3.9 04:09:15 10° NNE 04:13:24 39° E 04:15:05 28° SE
Cosmos 1603 4.5 04:13:18 28° SSE 04:15:58 49° ESE 04:21:26 10° NE
Cosmos 1339 Rocket 4.3 04:15:29 63° S 04:16:35 87° E 04:22:43 10° N
Cosmos 1943 4.4 04:15:34 14° S 04:19:58 40° ESE 04:25:12 10° NE
Cosmos 1743 Rocket 4.3 04:23:53 10° N 04:28:07 52° E 04:32:20 10° SSE
STARLINK-1098 4.4 04:36:27 45° SE 04:36:36 45° SE 04:40:31 10° ENE
Cosmos 407 Rocket 3.9 04:35:15 17° S 04:39:16 64° ESE 04:44:31 10° NNE
USA 215 4.3 04:34:07 10° NE 04:39:40 30° NNW 04:41:24 27° NW
Cosmos 1842 Rocket 3.5 04:40:30 78° NNW 04:40:30 78° NNW 04:44:46 10° N
ADEOS 4.2 04:35:55 10° N 04:39:45 40° NNW 04:39:45 40° NNW
STARLINK-1123 4.1 04:41:19 49° SSE 04:41:37 50° SE 04:45:33 10° ENE
Meteor 2-3 Rocket 3.6 04:36:50 10° N 04:42:38 84° W 04:48:26 10° S
BREEZE M DEB (TANK) 4.1 04:45:29 29° N 04:45:58 31° NNE 04:51:20 10° ENE
STARLINK-1097 4.0 04:45:44 51° SSE 04:46:14 55° SE 04:50:15 10° ENE
Cosmos 921 Rocket 4.0 04:42:53 10° N 04:47:10 46° ENE 04:51:20 10° SE
GEOS 3 Rocket 3.7 04:42:25 10° NE 04:47:46 81° SE 04:50:29 30° SSW
Cosmos 1484 Rocket 3.2 04:44:45 10° NNE 04:48:42 64° E 04:52:35 10° S
STARLINK-1099 3.9 04:50:22 51° S 04:51:02 60° SE 04:55:04 10° ENE
BREEZE M DEB (TANK) 3.9 04:44:01 22° WNW 04:52:17 59° SW 04:56:25 10° SSE
STARLINK-1070 4.2 04:54:21 33° NE 04:54:21 33° NE 04:56:09 10° NE
STARLINK-1124 4.4 04:54:41 29° NNE 04:54:41 29° NNE 04:56:22 10° NE
STARLINK-1066 4.2 04:54:55 33° NE 04:54:55 33° NE 04:56:43 10° NE
STARLINK-1081 4.2 04:55:09 33° NE 04:55:09 33° NE 04:56:58 10° NE
STARLINK-1069 4.2 04:55:34 33° NE 04:55:34 33° NE 04:57:23 10° NE
STARLINK-1085 4.2 04:55:46 34° NE 04:55:46 34° NE 04:57:36 10° NE
STARLINK-1086 4.1 04:56:02 34° NE 04:56:02 34° NE 04:57:53 10° NE
STARLINK-1095 4.1 04:56:13 34° NE 04:56:13 34° NE 04:58:04 10° NE
STARLINK-1077 4.1 04:56:27 34° NE 04:56:27 34° NE 04:58:19 10° NE
STARLINK-1075 4.1 04:56:39 34° NE 04:56:39 34° NE 04:58:31 10° NE
STARLINK-1093 4.1 04:56:52 34° NE 04:56:52 34° NE 04:58:45 10° NE
STARLINK-1104 3.8 04:55:03 50° SSW 04:55:54 66° SE 04:59:57 10° ENE
STARLINK-1074 4.1 04:57:06 35° NE 04:57:06 35° NE 04:59:00 10° NE
STARLINK-1087 4.1 04:57:17 35° NE 04:57:17 35° NE 04:59:10 10° NE
STARLINK-1088 4.1 04:57:30 34° NE 04:57:30 34° NE 04:59:23 10° NE
STARLINK-1115 4.0 04:57:44 35° NNE 04:57:44 35° NNE 04:59:39 10° NE
STARLINK-1076 4.0 04:57:57 35° NNE 04:57:57 35° NNE 04:59:52 10° NE
STARLINK-1092 4.0 04:58:11 35° NNE 04:58:11 35° NNE 05:00:07 10° NE
STARLINK-1080 4.0 04:58:22 35° NNE 04:58:22 35° NNE 05:00:18 10° NE
STARLINK-1090 4.0 04:58:36 36° NNE 04:58:36 36° NNE 05:00:33 10° NE
Cosmos 2221 2.3 04:56:38 47° SSW 04:57:44 69° W 05:02:02 10° N
STARLINK-1089 4.0 04:58:51 36° NNE 04:58:51 36° NNE 05:00:49 10° NE
STARLINK-1107 4.0 04:59:01 36° NNE 04:59:01 36° NNE 05:00:58 10° NE
STARLINK-1109 4.0 04:59:14 36° NNE 04:59:14 36° NNE 05:01:12 10° NE
Cosmos 614 Rocket 3.8 04:55:34 26° SSW 04:58:28 77° WNW 05:03:42 10° NNE
STARLINK-1091 3.9 04:59:29 36° NNE 04:59:29 36° NNE 05:01:27 10° NE
STARLINK-1072 3.9 04:59:38 36° NNE 04:59:38 36° NNE 05:01:36 10° NE
COSMO-SKYMED 1 3.0 04:54:34 10° SSE 04:58:50 62° ENE 05:03:08 10° N
STARLINK-1096 3.9 04:59:53 36° NNE 04:59:53 36° NNE 05:01:51 10° NE
STARLINK-1079 3.9 05:00:06 37° NNE 05:00:06 37° NNE 05:02:06 10° NE
STARLINK-1116 3.9 05:00:20 37° NNE 05:00:20 37° NNE 05:02:20 10° NE
STARLINK-1094 3.9 05:00:48 37° NNE 05:00:48 37° NNE 05:02:50 10° NE
STARLINK-1117 3.9 05:00:58 37° NNE 05:00:58 37° NNE 05:02:59 10° NE
STARLINK-1078 3.8 05:01:12 37° NNE 05:01:12 37° NNE 05:03:14 10° NE
STARLINK-1108 3.8 05:01:25 38° NNE 05:01:25 38° NNE 05:03:28 10° NE
STARLINK-1144 3.7 04:59:40 47° SSW 05:00:43 73° SE 05:04:48 10° ENE
Cosmos 2237 Rocket 4.3 05:01:42 10° NNW 05:01:42 10° NNW 05:01:58 10° NNW
STARLINK-1071 3.8 05:01:37 37° NNE 05:01:37 37° NNE 05:03:39 10° NE
STARLINK-1110 3.8 05:01:53 38° NNE 05:01:53 38° NNE 05:03:57 10° NE
STARLINK-1122 3.8 05:02:16 38° NNE 05:02:16 38° NNE 05:04:21 10° NE
STARLINK-1126 3.8 05:02:29 38° NNE 05:02:29 38° NNE 05:04:34 10° NE
STARLINK-1082 3.8 05:02:43 38° NNE 05:02:43 38° NNE 05:04:48 10° NE
STARLINK-1100 3.8 05:02:56 38° NNE 05:02:56 38° NNE 05:05:02 10° NE
STARLINK-1083 3.7 05:03:08 39° NNE 05:03:08 39° NNE 05:05:14 10° NE
STARLINK-1125 3.7 05:03:21 39° NNE 05:03:21 39° NNE 05:05:28 10° NE
Cosmos 1190 Rocket 4.0 04:59:00 10° SSW 05:04:16 90° ESE 05:09:37 10° NNE
STARLINK-1128 3.5 05:04:15 46° SW 05:05:22 81° SE 05:09:26 10° NE
STARLINK-1103 3.6 05:04:22 44° SW 05:05:35 79° SE 05:09:41 10° NE
CZ-4C R/B 4.2 05:07:04 12° NW 05:08:51 14° NNW 05:11:57 10° NNE
PSLV R/B 3.9 05:05:24 10° NNE 05:09:09 71° ESE 05:12:57 10° S
STARLINK-1113 3.5 05:08:40 42° SW 05:09:58 87° SE 05:14:02 10° NE
Meteor 1-27 4.2 05:04:55 10° SSW 05:10:21 57° WNW 05:15:50 10° N
STARLINK-1101 3.5 05:08:58 40° SW 05:10:23 86° SE 05:14:29 10° NE
Cosmos 1238 Rocket 4.2 05:06:42 10° N 05:12:39 60° ENE 05:17:36 10° SSE
Cosmos 1802 Rocket 4.3 05:06:18 10° N 05:12:45 71° E 05:19:08 10° SSE
BREEZE-M DEB (TANK) 4.4 05:10:18 14° SSW 05:13:08 39° SE 05:18:00 10° ENE
USA 267 4.1 05:07:50 10° S 05:13:09 26° SW 05:14:14 25° WSW
BREEZE-M DEB (TANK) 3.9 05:06:42 10° SW 05:13:51 48° SSE 05:16:41 10° ENE
STARLINK-1119 3.4 05:13:15 38° WSW 05:14:43 86° NW 05:18:47 10° NE
Cosmos 1238 4.0 05:14:46 44° SSW 05:15:33 69° W 05:18:39 10° N
STARLINK-1102 3.5 05:14:08 36° SW 05:15:42 87° NW 05:19:47 10° NE
Meteor 1-31 Rocket 3.4 05:13:40 10° N 05:16:45 34° NW 05:16:45 34° NW
STARLINK-1114 3.4 05:17:35 34° WSW 05:19:16 80° NW 05:23:21 10° NE
STARLINK-1111 3.5 05:18:35 33° WSW 05:20:20 80° NW 05:24:26 10° NE
Meteor 2-2 Rocket 4.3 05:15:16 10° SSW 05:21:16 71° WNW 05:27:19 10° N
Cosmos 676 Rocket 4.2 05:16:43 10° SSW 05:22:00 78° ESE 05:27:22 10° NNE
SKYMED 3 4.4 05:18:35 10° S 05:22:54 72° WSW 05:27:15 10° NNW
Cosmos 1943 Rocket 2.6 05:19:34 17° NW 05:23:21 38° WSW 05:28:23 10° S
CZ-4B R/B 3.2 05:20:31 10° N 05:23:53 35° WNW 05:24:16 34° W
STARLINK-1130 (DARKSAT) 3.5 05:22:19 31° WSW 05:24:09 74° NW 05:28:12 10° NE
STARLINK-1073 3.5 05:23:01 29° WSW 05:25:00 75° NW 05:29:07 10° NE
Lacrosse 5 2.3 05:24:33 25° WNW 05:26:57 42° SW 05:31:41 10° SSE
STARLINK-1084 3.5 05:26:33 27° WSW 05:28:37 69° NW 05:32:40 10° NE
ATLAS CENTAUR R/B 3.8 05:28:31 10° NW 05:28:37 10° NNW 05:29:03 10° NNW
STARLINK-1121 3.6 05:27:42 26° WSW 05:29:54 69° NNW 05:34:00 10° NE
STARLINK-1106 3.6 05:32:28 23° WSW 05:34:51 64° NNW 05:38:57 10° NE
ALOS 2.2 05:30:44 10° N 05:35:21 61° WNW 05:39:56 10° SSW
Cosmos 2016 Rocket 4.0 05:29:32 10° N 05:35:50 88° E 05:42:09 10° S
STARLINK-1112 3.7 05:37:14 21° WSW 05:39:49 59° NNW 05:43:54 10° NE
CZ-2C R/B 3.8 05:36:23 10° NNW 05:39:57 19° WNW 05:41:04 18° W
Cosmos 1869 3.9 05:36:23 10° SW 05:40:01 33° WNW 05:43:39 10° N
Cosmos 1400 Rocket 3.0 05:36:04 10° S 05:40:03 79° E 05:44:09 10° NNE
ISS -0.7 05:40:53 10° SSE 05:42:44 14° SE 05:44:35 10° E
SL-16 R/B 4.0 05:43:29 12° NW 05:44:37 13° NW 05:47:00 10° NNW
ATLAS 2AS CENTAUR R/B 4.3 05:38:19 10° NNW 05:45:11 34° NE 05:51:33 10° E
FENGYUN 3A 3.7 05:39:55 10° N 05:45:15 57° WNW 05:50:33 10° SSW
NOAA 6 4.1 05:40:26 10° NNE 05:45:39 82° ESE 05:50:48 10° SSW
Cosmos 1633 2.9 05:42:14 10° NNW 05:45:41 40° W 05:49:06 10° SSW
Sich 1 2.9 05:41:34 10° NNW 05:45:52 74° W 05:50:09 10° S
Cosmos 1805 Rocket 3.6 05:41:49 10° NNW 05:46:02 51° W 05:50:14 10° S
ADEOS Rocket 3.5 05:40:03 10° SSE 05:46:15 75° ENE 05:53:12 10° N
SKYMED 2 4.0 05:42:56 10° SSW 05:46:58 38° W 05:51:03 10° NNW
Cosmos 2084 3.7 05:44:04 10° SW 05:48:25 53° NW 05:52:50 10° NNE
H-2A R/B 3.8 05:45:16 10° NNW 05:48:38 22° WNW 05:51:40 12° WSW
Cosmos 2369 Rocket 3.1 05:50:47 10° NW 05:55:32 28° WSW 06:00:17 10° SSW
H-2A R/B 3.5 05:53:54 10° NNE 05:57:35 54° E 06:01:13 10° S
Aureole 2 Rocket 3.8 05:57:41 15° W 05:58:34 16° WSW 06:00:40 10° SW
STARLINK-1118 4.4 06:00:07 13° NW 06:01:25 17° NNW 06:03:16 10° NNE
Cosmos 2173 Rocket 4.4 05:58:20 10° NNW 06:04:02 38° W 06:09:40 10° SSW
Cosmos 1656 Rocket 3.9 05:58:34 10° NW 06:04:03 51° WSW 06:09:32 10° S
Cosmos 1943 3.9 05:59:08 10° WSW 06:04:05 31° NW 06:09:05 10° N
DELTA 2 R/B (1) 4.1 06:01:29 10° WSW 06:06:56 57° SSE 06:12:22 10° E
Shenzhou-11 Module 1.5 06:06:06 12° W 06:08:28 83° N 06:11:07 10° E
Okean O Rocket 1.6 06:04:10 10° N 06:08:29 61° WNW 06:12:46 10° SSW
CZ-4B DEB 4.5 06:04:27 10° N 06:09:40 46° WNW 06:14:51 10° SW
Cosmos 1151 Rocket 3.0 06:05:42 10° S 06:10:00 90° ENE 06:14:22 10° N
SMAP 3.5 06:10:00 10° NNE 06:14:40 69° ESE 06:19:18 10° S
STARLINK-1098 4.4 06:12:15 10° W 06:16:03 36° NNW 06:19:51 10° NE
CZ-4B R/B 3.1 06:11:00 10° N 06:16:15 62° WNW 06:21:27 10° SSW
Cosmos 1328 Rocket 3.5 06:13:32 10° SSW 06:17:58 72° W 06:22:26 10° N
Cosmos 1862 4.1 06:16:32 10° NNW 06:20:01 30° W 06:23:30 10° SSW
STARLINK-1123 4.4 06:17:16 10° W 06:20:59 34° NNW 06:24:43 10° NE
